This is the latest recevied weather packets stored in our database for station/object VA3WWD-2. If no packets are shown the sender has not sent any weather packets the latest 10 day(s).
| Time | Temp. | Humidity | Pressure | Rain* | Wind** | Luminosity | Snow |
|---|---|---|---|---|---|---|---|
| 1777660253 | 7.22° C | 32% | - | 0 mm | 0 m/s | - | - |
| 1777659955 | 7.22° C | 34% | - | 0 mm | 0 m/s | - | - |
| 1777659657 | 7.22° C | 38% | - | 0 mm | 0 m/s | - | - |
| 1777659356 | 7.22° C | 36% | - | 0 mm | 0 m/s | - | - |
| 1777659058 | 7.78° C | 36% | - | 0 mm | 0 m/s | - | - |
| 1777658760 | 7.78° C | 36% | - | 0 mm | 0 m/s | - | - |
| 1777658459 | 7.22° C | 32% | - | 0 mm | 0 m/s | - | - |
| 1777658161 | 6.67° C | 34% | - | 0 mm | 0 m/s | - | - |
| 1777657863 | 6.11° C | 34% | - | 0 mm | 0 m/s | - | - |
| 1777657562 | 6.11° C | 36% | - | 0 mm | 0 m/s | - | - |
| 1777657264 | 6.11° C | 36% | - | 0 mm | 0 m/s | - | - |
| 1777656665 | 6.67° C | 36% | - | 0 mm | 0 m/s | - | - |
| 1777656069 | 6.67° C | 39% | - | 0 mm | 0 m/s | - | - |
| 1777655768 | 6.11° C | 40% | - | 0 mm | 0 m/s | - | - |
| 1777655470 | 6.67° C | 40% | - | 0 mm | 0 m/s | - | - |
| 1777654871 | 6.67° C | 41% | - | 0 mm | 0 m/s | - | - |
| 1777654573 | 6.11° C | 39% | - | 0 mm | 0 m/s | - | - |
| 1777654275 | 6.11° C | 36% | - | 0 mm | 0 m/s | - | - |
| 1777653974 | 6.11° C | 39% | - | 0 mm | 0 m/s | - | - |
| 1777653676 | 5.56° C | 42% | - | 0 mm | 0 m/s | - | - |
| 1777653078 | 6.11° C | 41% | - | 0 mm | 0 m/s | - | - |
| 1777652779 | 5.56° C | 43% | - | 0 mm | 0 m/s | - | - |
| 1777652481 | 6.11° C | 43% | - | 0 mm | 0 m/s | - | - |
| 1777652181 | 5° C | 43% | - | 0 mm | 0 m/s | - | - |
| 1777651585 | 6.11° C | 40% | - | 0 mm | 0 m/s | - | - |
* Rain latest hour (hover to see other rain measurements)
** Current wind speed in m/s (hover to see current wind gust speed)